UPSVAC Airport Information Service

Boston Logan International Airport

ICAO: KBOS Country: United States
Latitude: 42.363 Longitude: -71.0064
Latest Arrival : UPS1520 (KSDF-KBOS) Latest Departure : UPS1812 (KBOS-KDFW)


WX CaptureLIVE
Data provided by noaa.gov | Fetched at 15:59:14

METAR : KBOS 281512Z 06009KT 10SM SCT019 BKN024 OVC043 21/15 A3002 RMK AO2 T02060150

TAF : KBOS 281426Z 2814/2918 04010KT P6SM VCSH BKN021 BKN040 FM281600 05009KT P6SM BKN025 FM281700 06008KT P6SM BKN040 FM281800 08009KT P6SM SCT040 FM290100 15005KT P6SM FEW120


Runway Data for KBOS
Data provided by openaviationdata.com

Runway ID Mag Var Hdg Length Elevation Surface ILS Freq ILS Id ILS Slope
04L -15 35° 7475 ft 0 ft Bituminous -- -- --
04R -15 35° 7513 ft 0 ft Bituminous 110.3 IBOS 3
9 -15 92° 6761 ft 0 ft Bituminous -- -- --
14 -15 140° 5033 ft 0 ft Asphalt -- -- --
15L -15 151° 2555 ft 0 ft Asphalt -- -- --
15R -15 151° 9857 ft 0 ft Bituminous 110.7 IMDC 3
22L -15 215° 7513 ft 0 ft Bituminous 110.3 ILQN 3
22R -15 215° 7475 ft 0 ft Bituminous -- -- --
27 -15 272° 6761 ft 0 ft Bituminous 111.3 IDGU 3
32 -15 320° 5033 ft 0 ft Asphalt -- -- --
33L -15 331° 9857 ft 0 ft Bituminous 110.7 ILIP 3
33R -15 331° 2555 ft 0 ft Asphalt -- -- --

Boston Logan International Airport, United States
Use only for reference purposes



Not for navigational purposes.